[[{"header":{"parameterUnit":"m.s-1","parameterCategory":1,"la1":30.2991,"la2":30.254,"lo1":-89.0895,"lo2":-89.0444,"dy":0.0017,"dx":0.0017,"nx":28,"ny":28,"refTime":"2025-08-03T21:00:00:Z","depth":0,"parameterNumber":2,"parameterNumberName":"U-component_of_WINDS"},"data":[0,0,0,0,0,0,0,0,0,0,0,0,0,0,0,0,0,0,0,0,0,0,0,0,0,0,0,0,0,0,0,0,0,0,0,0,0,0,0,0,0,0,0,0,0,0,0,0,0,0,0,0,0,0,0,0,0,0,-2.7993,-2.7993,0,-2.7988,-2.7988,-2.7988,-2.7908,-2.7906,-2.7904,-2.7902,-2.7899,-2.7901,-2.7902,0,0,0,0,0,0,0,0,0,0,0,0,0,-2.7933,-2.7935,-2.7993,-2.7993,-2.7993,-2.7988,-2.7988,-2.7988,-2.7908,-2.7906,-2.7903,-2.7901,-2.7898,-2.79,-2.7902,0,0,0,0,0,0,0,0,0,0,0,0,0,-2.7947,-2.7935,-2.7993,-2.7952,-2.7949,-2.7988,-2.7988,-2.7988,-2.7909,-2.7906,-2.7902,-2.79,-2.7897,-2.79,-2.7903,-2.7981,0,0,-2.7911,-2.7912,0,0,0,0,0,0,0,0,-2.7946,-2.7949,-2.7958,-2.7955,-2.7951,-2.7945,-2.7966,-2.7986,-2.7909,-2.7924,-2.7902,-2.7898,-2.7917,-2.7918,-2.7924,-2.7981,-2.7981,-2.7911,-2.7913,-2.7914,-2.7915,0,0,0,0,0,0,0,-2.7946,-2.7949,-2.7991,-2.7958,-2.7954,-2.7934,-2.7933,-2.7969,-2.7938,-2.7922,-2.7917,-2.7917,-2.7914,-2.7921,-2.7923,-2.7981,-2.7911,-2.7914,-2.7916,-2.7917,-2.8101,-2.8104,0,0,0,0,0,0,-2.795,-2.7949,-2.7991,-2.7991,-2.7941,-2.7938,-2.7936,-2.795,-2.7937,-2.7932,-2.792,-2.7913,-2.7918,-2.792,-2.7923,-2.8012,-2.7914,-2.7917,-2.7918,-2.8098,-2.8102,-2.8105,0,0,0,0,0,0,-2.7949,-2.7955,-2.7991,-2.7968,-2.7971,-2.7942,-2.7959,-2.7952,-2.7959,-2.7935,-2.7929,-2.7932,-2.7916,-2.7919,-2.7967,-2.8011,-2.7918,-2.7921,-2.8094,-2.8099,-2.8104,-2.8194,0,0,0,0,0,0,-2.7948,-2.7955,-2.7984,-2.7969,-2.7973,-2.8036,-2.7961,-2.7954,-2.7963,-2.7955,-2.7945,-2.7941,-2.7914,-2.7963,-2.797,-2.8013,-2.7923,-2.809,-2.8096,-2.8102,-2.8187,-2.8201,-2.8213,0,0,0,0,0,-2.7946,-2.8011,-2.7986,-2.7992,-2.8009,-2.8038,-2.804,-2.8007,-2.7967,-2.7997,-2.7981,-2.7941,-2.8006,-2.7969,-2.7975,-2.8021,-2.8087,-2.8094,-2.8102,-2.8181,-2.8198,-2.8213,0,0,0,0,0,0,-2.8033,-2.8008,-2.7981,-2.8042,-2.8043,-2.8025,-2.8061,-2.8027,-2.8039,-2.8031,-2.799,-2.7988,-2.8042,-2.8036,-2.7996,-2.8095,-2.8039,-2.8048,-2.8097,-2.8114,-2.8127,-2.8127,-2.7925,0,0,0,0,0,-2.8059,-2.8084,-2.8061,-2.8118,-2.812,-2.8091,-2.8102,-2.8076,-2.8075,-2.8075,-2.8063,-2.8064,-2.8084,-2.8099,-2.8116,-2.8185,-2.8182,-2.822,-2.8233,-2.8244,-2.8252,-2.8287,-2.8304,-2.8129,-2.8129,-2.8129,0,0,-2.8113,-2.8103,-2.8122,-2.8135,-2.8133,-2.816,-2.8091,-2.8123,-2.8143,-2.808,-2.8124,-2.8116,-2.8114,-2.8173,-2.8198,-2.8169,-2.83,-2.8254,-2.8263,-2.8265,-2.8296,-2.8313,-2.8328,-2.8134,-2.8133,-2.8133,0,0,-2.8226,-2.8222,-2.8267,-2.8266,-2.8262,-2.8242,-2.8253,-2.824,-2.8231,-2.8275,-2.8228,-2.8251,-2.8287,-2.8287,-2.8292,-2.8404,-2.8367,-2.8411,-2.8481,-2.8515,-2.8529,-2.8541,-2.8579,-2.8594,-2.8419,-2.8419,-2.8419,0,-2.8295,-2.8333,-2.8296,-2.833,-2.8337,-2.828,-2.8326,-2.8327,-2.833,-2.8336,-2.8303,-2.8346,-2.8341,-2.8399,-2.8426,-2.8432,-2.8443,-2.8411,-2.853,-2.8541,-2.8552,-2.8588,-2.8603,-2.8424,-2.8424,-2.8423,-2.8423,0,-2.8417,-2.8444,-2.8482,-2.8484,-2.8496,-2.8536,-2.8504,-2.852,-2.8493,-2.8476,-2.8521,-2.8513,-2.8527,-2.8539,-2.8513,-2.8592,-2.8574,-2.8537,-2.8479,-2.8574,-2.8608,-2.8622,-2.8432,-2.843,-2.8429,-2.8427,0,0,-2.8585,-2.8565,-2.8579,-2.8579,-2.857,-2.8591,-2.8628,-2.8641,-2.8655,-2.8659,-2.8688,-2.872,-2.8684,-2.869,-2.8664,-2.8694,-2.8782,-2.8652,-2.8652,-2.8676,-2.8867,-2.8895,-2.8911,-2.8758,-2.876,-2.8762,-2.8867,0,-2.8693,-2.8755,-2.8721,-2.8788,-2.8812,-2.8758,-2.879,-2.8788,-2.8774,-2.8792,-2.8776,-2.8798,-2.8751,-2.8753,-2.8781,-2.8765,-2.8819,-2.8758,-2.8785,-2.8786,-2.8786,-2.8929,-2.8959,-2.9058,-2.888,-2.8882,-2.8883,0,-2.8828,-2.8835,-2.8904,-2.8889,-2.8897,-2.8927,-2.8935,-2.8954,-2.8951,-2.8937,-2.8943,-2.891,-2.8945,-2.8889,-2.8937,-2.8896,-2.8905,-2.8899,-2.8902,-2.8902,-2.884,-2.8933,-2.9088,-2.9103,-2.8904,-2.8902,-2.8901,0,-2.8942,-2.897,-2.9013,-2.9015,-2.8999,-2.9021,-2.9015,-2.9009,-2.9018,-2.9026,-2.9031,-2.9043,-2.905,-2.906,-2.903,-2.8992,-2.9082,-2.9024,-2.9072,-2.9073,-2.9093,-2.9092,-2.9251,-2.9101,-2.9101,-2.91,-2.91,0,-2.9066,-2.9109,-2.9064,-2.9091,-2.9138,-2.9099,-2.9147,-2.9136,-2.913,-2.9154,-2.9109,-2.9133,-2.9092,-2.9112,-2.9089,-2.9132,-2.9136,-2.9126,-2.9119,-2.9129,-2.913,-2.9134,-2.9126,-2.9104,-2.9103,-2.9103,-2.9102,0,-2.9201,-2.9173,-2.9217,-2.9197,-2.9193,-2.9229,-2.9212,-2.9236,-2.9218,-2.9249,-2.9254,-2.9225,-2.9246,-2.9217,-2.9236,-2.922,-2.9278,-2.9262,-2.9279,-2.9274,-2.9323,-2.9318,-2.949,-2.951,-2.9348,-2.9349,-2.9351,0,-2.9281,-2.9313,-2.9297,-2.9309,-2.9305,-2.9326,-2.9334,-2.9297,-2.9308,-2.9306,-2.933,-2.9347,-2.9358,-2.9393,-2.9375,-2.9388,-2.9371,-2.943,-2.9372,-2.9381,-2.937,-2.9368,-2.9371,-2.9441,-2.9443,-2.9445,-2.9446,0,-2.9427,-2.941,-2.9424,-2.9433,-2.9444,-2.9449,-2.9451,-2.9464,-2.9425,-2.944,-2.9459,-2.9468,-2.9485,-2.9502,-2.951,-2.9505,-2.9469,-2.9465,-2.9476,-2.9486,-2.9494,-2.9489,-2.931,-2.9461,-2.9459,-2.9458,-2.9457,-2.9457,-2.9536,-2.9561,-2.9553,-2.9569,-2.9566,-2.9569,-2.959,-2.9574,-2.9589,-2.9599,-2.9577,-2.9602,-2.9597,-2.9604,-2.9602,-2.9621,-2.9596,-2.9613,-2.9617,-2.9622,-2.9628,-2.9492,-2.9623,-2.9623,-2.9622,-2.9622,-2.9621,0,-2.9678,-2.9669,-2.9685,-2.9688,-2.9701,-2.9665,-2.9665,-2.9678,-2.97,-2.9698,-2.9709,-2.9731,-2.9747,-2.9729,-2.9741,-2.976,-2.9744,-2.9765,-2.9762,-2.9761,-2.9652,-2.9639,-2.9777,-2.9777,-2.9777,-2.9777,-2.9777,-2.9777,-2.9753,-2.9793,-2.9776,-2.9814,-2.9805,-2.9828,-2.9831,-2.9833,-2.983,-2.9857,-2.9869,-2.9857,-2.9848,-2.9859,-2.9872,-2.9866,-2.9872,-2.9898,-2.9887,-2.9785,-2.9769,-2.9755,-2.9743,-2.99,-2.9901,-2.9995,-2.9996,-2.9997]},{"header":{"parameterUnit":"m.s-1","parameterCategory":1,"la1":30.2991,"la2":30.254,"lo1":-89.0895,"lo2":-89.0444,"dy":0.0017,"dx":0.0017,"nx":28,"ny":28,"refTime":"2025-08-03T21:00:00:Z","depth":0,"parameterNumber":3,"parameterNumberName":"V-component_of_WINDS"},"data":[0,0,0,0,0,0,0,0,0,0,0,0,0,0,0,0,0,0,0,0,0,0,0,0,0,0,0,0,0,0,0,0,0,0,0,0,0,0,0,0,0,0,0,0,0,0,0,0,0,0,0,0,0,0,0,0,0,0,-0.7239,-0.7237,0,-0.709,-0.7088,-0.7086,-0.7007,-0.7007,-0.7007,-0.7006,-0.6853,-0.685,-0.6846,0,0,0,0,0,0,0,0,0,0,0,0,0,-0.7456,-0.7453,-0.7239,-0.7237,-0.7235,-0.709,-0.7088,-0.7086,-0.7007,-0.7007,-0.7006,-0.7006,-0.6855,-0.685,-0.6845,0,0,0,0,0,0,0,0,0,0,0,0,0,-0.734,-0.7452,-0.724,-0.7178,-0.7172,-0.709,-0.7088,-0.7085,-0.7007,-0.7007,-0.7006,-0.7006,-0.6856,-0.685,-0.6845,-0.6813,0,0,-0.6827,-0.6824,0,0,0,0,0,0,0,0,-0.7347,-0.7332,-0.7189,-0.7183,-0.7175,-0.7067,-0.7108,-0.6994,-0.7007,-0.7069,-0.7006,-0.7006,-0.6925,-0.6913,-0.6885,-0.6806,-0.6799,-0.6826,-0.6823,-0.682,-0.6818,0,0,0,0,0,0,0,-0.7355,-0.7338,-0.718,-0.7187,-0.7178,-0.7159,-0.7142,-0.7086,-0.7,-0.7064,-0.7058,-0.7041,-0.692,-0.6891,-0.6881,-0.6797,-0.6826,-0.6821,-0.6817,-0.6815,-0.6684,-0.6684,0,0,0,0,0,0,-0.7373,-0.7345,-0.7185,-0.7176,-0.7262,-0.7155,-0.7136,-0.7102,-0.7,-0.6985,-0.7042,-0.7038,-0.6902,-0.6888,-0.6876,-0.6832,-0.682,-0.6815,-0.6811,-0.6684,-0.6684,-0.6684,0,0,0,0,0,0,-0.7378,-0.7359,-0.7191,-0.7259,-0.7236,-0.7151,-0.7113,-0.7099,-0.7069,-0.6984,-0.6968,-0.7028,-0.6901,-0.6884,-0.6829,-0.6826,-0.6812,-0.6807,-0.6684,-0.6684,-0.6684,-0.6745,0,0,0,0,0,0,-0.7384,-0.7362,-0.7348,-0.7259,-0.7233,-0.7147,-0.7113,-0.7096,-0.706,-0.7054,-0.6966,-0.6952,-0.6899,-0.6838,-0.6823,-0.6817,-0.6802,-0.6684,-0.6684,-0.6684,-0.6743,-0.6747,-0.6751,0,0,0,0,0,-0.7392,-0.7371,-0.7348,-0.7329,-0.7214,-0.7147,-0.7132,-0.7072,-0.706,-0.7046,-0.6991,-0.6954,-0.6829,-0.6834,-0.6816,-0.6808,-0.6684,-0.6684,-0.6684,-0.6741,-0.6746,-0.6751,0,0,0,0,0,0,-0.7462,-0.7358,-0.7332,-0.7281,-0.7223,-0.7134,-0.7114,-0.7079,-0.7024,-0.7021,-0.6949,-0.693,-0.6882,-0.6839,-0.6847,-0.6772,-0.6753,-0.6749,-0.6802,-0.6806,-0.681,-0.6821,-0.6797,0,0,0,0,0,-0.7472,-0.7425,-0.7337,-0.7301,-0.7274,-0.7199,-0.7167,-0.7127,-0.7064,-0.7039,-0.698,-0.6921,-0.6868,-0.6835,-0.6781,-0.6736,-0.6717,-0.6722,-0.6726,-0.673,-0.6728,-0.6702,-0.6704,-0.6685,-0.6685,-0.6685,0,0,-0.7491,-0.7428,-0.7403,-0.7313,-0.7264,-0.7218,-0.7179,-0.7132,-0.7097,-0.7032,-0.6977,-0.6932,-0.6861,-0.6811,-0.6786,-0.6774,-0.6729,-0.673,-0.6734,-0.6729,-0.6702,-0.6704,-0.6706,-0.6685,-0.6685,-0.6685,0,0,-0.7502,-0.745,-0.7414,-0.7366,-0.7292,-0.7242,-0.7234,-0.7149,-0.7117,-0.7061,-0.7011,-0.6969,-0.6879,-0.6831,-0.6795,-0.6789,-0.6754,-0.6774,-0.6794,-0.677,-0.6771,-0.6772,-0.6771,-0.6771,-0.6772,-0.6772,-0.6772,0,-0.7535,-0.7463,-0.74,-0.7356,-0.7318,-0.7258,-0.7221,-0.7177,-0.709,-0.7065,-0.7053,-0.6939,-0.6887,-0.6826,-0.6825,-0.6797,-0.6786,-0.6783,-0.6776,-0.6776,-0.6776,-0.6774,-0.6774,-0.6775,-0.6775,-0.6774,-0.6774,0,-0.7508,-0.7459,-0.7439,-0.7357,-0.7316,-0.7277,-0.7208,-0.7175,-0.7138,-0.709,-0.7034,-0.697,-0.6903,-0.6885,-0.6848,-0.6819,-0.6814,-0.679,-0.6768,-0.6782,-0.6779,-0.6777,-0.6779,-0.6778,-0.6777,-0.6776,0,0,-0.7558,-0.7442,-0.7435,-0.7397,-0.7312,-0.7273,-0.7231,-0.7165,-0.7138,-0.708,-0.7043,-0.6969,-0.6947,-0.6906,-0.6863,-0.6842,-0.6842,-0.682,-0.6817,-0.6827,-0.6807,-0.6826,-0.6826,-0.6819,-0.6818,-0.6818,-0.6813,0,-0.7557,-0.7478,-0.7421,-0.7364,-0.7319,-0.7261,-0.7224,-0.7168,-0.7122,-0.7077,-0.7027,-0.6976,-0.695,-0.6925,-0.6901,-0.6847,-0.6837,-0.6847,-0.6784,-0.6782,-0.6804,-0.6824,-0.6843,-0.6842,-0.6811,-0.6811,-0.6811,0,-0.7546,-0.749,-0.7429,-0.7348,-0.7327,-0.7295,-0.7231,-0.7189,-0.7124,-0.7092,-0.7048,-0.7004,-0.6957,-0.6941,-0.6875,-0.6883,-0.6854,-0.6824,-0.6823,-0.6814,-0.6798,-0.6817,-0.684,-0.684,-0.6808,-0.6808,-0.6808,0,-0.7589,-0.7499,-0.745,-0.742,-0.7325,-0.7304,-0.7263,-0.7198,-0.7163,-0.7107,-0.7083,-0.7023,-0.699,-0.6944,-0.6886,-0.6879,-0.6827,-0.6805,-0.68,-0.6802,-0.6792,-0.6793,-0.6811,-0.6773,-0.6773,-0.6773,-0.6773,0,-0.7594,-0.7559,-0.7469,-0.7439,-0.7399,-0.7333,-0.7295,-0.7249,-0.7192,-0.7153,-0.71,-0.7064,-0.6989,-0.6944,-0.6898,-0.6852,-0.6837,-0.6811,-0.6799,-0.6816,-0.6819,-0.6796,-0.6795,-0.6773,-0.6773,-0.6773,-0.6773,0,-0.7636,-0.7574,-0.7518,-0.7433,-0.7411,-0.7384,-0.7312,-0.7281,-0.7233,-0.7185,-0.7169,-0.7094,-0.7039,-0.6976,-0.6901,-0.687,-0.6827,-0.681,-0.6849,-0.6842,-0.6841,-0.6842,-0.6844,-0.6842,-0.6806,-0.6806,-0.6807,0,-0.7643,-0.7615,-0.7527,-0.7497,-0.7459,-0.7411,-0.7375,-0.7309,-0.7274,-0.7199,-0.7178,-0.7119,-0.7068,-0.6983,-0.6922,-0.6864,-0.6845,-0.685,-0.6836,-0.6854,-0.6846,-0.6848,-0.6846,-0.6854,-0.6855,-0.6855,-0.6856,0,-0.7664,-0.7634,-0.7584,-0.7524,-0.7482,-0.7431,-0.7378,-0.7357,-0.7281,-0.7244,-0.7187,-0.7148,-0.7071,-0.7014,-0.6948,-0.6907,-0.6869,-0.6861,-0.6856,-0.6873,-0.6898,-0.6885,-0.686,-0.6861,-0.686,-0.686,-0.686,-0.6859,-0.7688,-0.7661,-0.7595,-0.7541,-0.7494,-0.7446,-0.7414,-0.7362,-0.7314,-0.7246,-0.721,-0.7155,-0.7091,-0.7,-0.696,-0.6916,-0.6903,-0.6897,-0.6895,-0.6895,-0.69,-0.6905,-0.6904,-0.6903,-0.6903,-0.6903,-0.6903,0,-0.7706,-0.7661,-0.7612,-0.754,-0.7498,-0.7466,-0.7406,-0.7373,-0.7324,-0.7268,-0.722,-0.7156,-0.71,-0.7035,-0.6975,-0.6952,-0.6934,-0.6939,-0.694,-0.6931,-0.6914,-0.6924,-0.6955,-0.6955,-0.6955,-0.6955,-0.6955,-0.6955,-0.771,-0.7662,-0.7626,-0.7555,-0.7509,-0.7454,-0.7423,-0.7379,-0.7334,-0.7264,-0.7218,-0.7176,-0.7116,-0.7052,-0.7,-0.6982,-0.6963,-0.6974,-0.6951,-0.6937,-0.6932,-0.6928,-0.6937,-0.697,-0.697,-0.6972,-0.6972,-0.6972]}]]